Weather History for Wallops Island, VA

Change the Weather History Date:

Monday, November 19, 2012

  Actual Average Record
Temperature  
Mean Temperature 52 °F 49 °F  
Max Temperature 54 °F 58 °F 72 °F (1985)
Min Temperature 50 °F 40 °F 25 °F (2005)
Degree Days  
Heating Degree Days 13    
Month to date heating degree days 308  
Since 1 July heating degree days 476  
Cooling Degree Days 0    
Month to date cooling degree days 0  
Year to date cooling degree days 1616  
Growing Degree Days 2 (Base 50)    
Moisture  
Dew Point 44 °F    
Average Humidity 72    
Maximum Humidity 77    
Minimum Humidity 66    
Precipitation  
Precipitation 0.00 in 0.09 in 0.75 in (2003)
Month to date precipitation 0.49 1.79  
Year to date precipitation 45.11 36.33  
Sea Level Pressure  
Sea Level Pressure 30.29 in    
Wind  
Wind Speed 15 mph (NE)    
Max Wind Speed 25 mph    
Max Gust Speed 33 mph    
Visibility 10 miles    
Events      
T = Trace of Precipitation, MM = Missing Value Source: NWS Daily Summary

Daily Weather History Graph

Daily Weather History Graph

Search for Another Location

Airport:

Trip Planner

Search our weather history database for the weather conditions in past years. The results will help you decide how hot, cold, wet, or windy it might be!

Date:

Astronomy

Nov. 19, 2012 Rise Set
Actual Time 6:47 AM EST 4:47 PM EST
Civil Twilight 6:18 AM EST 5:15 PM EST
Nautical Twilight 5:46 AM EST 5:47 PM EST
Astronomical Twilight 5:15 AM EST 6:18 PM EST
Moon 11:50 AM EST (11/19) 11:09 PM EST (11/19)
Length of Visible Light 10h 56m
Length of Day
10h 00m
Waxing Crescent, 40% of the Moon is Illuminated
Nov 19
Waxing Crescent
Nov 20
First Quarter
Nov 28
Full
Dec 6
Last Quarter
Dec 13
New

Hourly Weather History & Observations

Time (EST) Temp. Dew Point Humidity Pressure Visibility Wind Dir Wind Speed Gust Speed Precip Events Conditions
12:10 AM 54.0 °F 43.0 °F 66% 30.39 in 10.0 mi NE 17.3 mph 26.5 mph N/A   Overcast
12:21 AM 54.0 °F 43.0 °F 66% 30.39 in 10.0 mi NE 17.3 mph 27.6 mph N/A   Overcast
12:54 AM 54.0 °F 44.1 °F 69% 30.37 in 10.0 mi NE 19.6 mph 28.8 mph N/A   Overcast
1:20 AM 54.0 °F 44.1 °F 69% 30.36 in 10.0 mi NE 19.6 mph 29.9 mph N/A   Overcast
1:54 AM 54.0 °F 44.1 °F 69% 30.36 in 10.0 mi NE 17.3 mph 28.8 mph N/A   Overcast
2:13 AM 54.0 °F 44.1 °F 69% 30.36 in 10.0 mi NE 18.4 mph 28.8 mph N/A   Overcast
2:28 AM 54.0 °F 44.1 °F 69% 30.36 in 10.0 mi NE 18.4 mph 28.8 mph N/A   Overcast
2:54 AM 54.0 °F 44.1 °F 69% 30.35 in 10.0 mi NE 18.4 mph 25.3 mph N/A   Overcast
3:08 AM 53.1 °F 44.1 °F 71% 30.35 in 10.0 mi NE 16.1 mph 26.5 mph N/A   Overcast
3:54 AM 53.1 °F 44.1 °F 71% 30.33 in 10.0 mi NE 19.6 mph 25.3 mph N/A   Scattered Clouds
4:25 AM 53.1 °F 45.0 °F 74% 30.34 in 10.0 mi NE 19.6 mph 26.5 mph N/A   Overcast
4:54 AM 54.0 °F 45.0 °F 72% 30.33 in 10.0 mi NE 18.4 mph 26.5 mph N/A   Overcast
5:11 AM 54.0 °F 45.0 °F 72% 30.34 in 10.0 mi NE 18.4 mph - N/A   Overcast
5:54 AM 54.0 °F 45.0 °F 72% 30.33 in 10.0 mi NE 20.7 mph 27.6 mph N/A   Overcast
6:54 AM 54.0 °F 45.0 °F 72% 30.33 in 10.0 mi NE 16.1 mph 29.9 mph N/A   Overcast
7:54 AM 54.0 °F 45.0 °F 72% 30.34 in 10.0 mi NE 15.0 mph 28.8 mph N/A   Overcast
8:54 AM 52.0 °F 44.1 °F 74% 30.33 in 9.0 mi NNE 13.8 mph - N/A   Overcast
9:54 AM 53.1 °F 45.0 °F 74% 30.32 in 10.0 mi NNE 16.1 mph 23.0 mph N/A   Overcast
10:54 AM 54.0 °F 45.0 °F 72% 30.30 in 10.0 mi NNE 12.7 mph 21.9 mph N/A   Overcast
11:54 AM 53.1 °F 45.0 °F 74% 30.27 in 10.0 mi NNE 15.0 mph 23.0 mph N/A   Overcast
12:54 PM 52.0 °F 44.1 °F 74% 30.25 in 10.0 mi NNE 15.0 mph - N/A   Overcast
1:54 PM 53.1 °F 45.0 °F 74% 30.24 in 10.0 mi NNE 17.3 mph 25.3 mph N/A   Overcast
2:54 PM 52.0 °F 44.1 °F 74% 30.23 in 10.0 mi NE 19.6 mph 26.5 mph N/A   Overcast
3:54 PM 53.1 °F 44.1 °F 71% 30.24 in 10.0 mi NE 16.1 mph 23.0 mph N/A   Overcast
4:54 PM 52.0 °F 43.0 °F 71% 30.23 in 10.0 mi NNE 13.8 mph 19.6 mph N/A   Overcast
5:54 PM 52.0 °F 43.0 °F 71% 30.23 in 10.0 mi NNE 9.2 mph 19.6 mph N/A   Overcast
6:54 PM 51.1 °F 42.1 °F 71% 30.22 in 10.0 mi NNE 11.5 mph - N/A   Overcast
7:54 PM 51.1 °F 42.1 °F 71% 30.21 in 10.0 mi NNE 12.7 mph 20.7 mph N/A   Overcast
8:54 PM 51.1 °F 42.1 °F 71% 30.19 in 10.0 mi NNE 11.5 mph - N/A   Overcast
9:54 PM 51.1 °F 43.0 °F 74% 30.19 in 10.0 mi NE 10.4 mph - N/A   Overcast
10:54 PM 51.1 °F 43.0 °F 74% 30.18 in 10.0 mi NE 13.8 mph - N/A   Overcast
11:54 PM 50.0 °F 43.0 °F 77% 30.17 in 9.0 mi NNE 12.7 mph 19.6 mph N/A   Overcast